CW7625 Weather Reports


Display with metric or nautical units.
time (UTC)temp
F
wind
direction
speed
MPH
gust
MPH
rain 1hr
in
rain 24hr
in
rain mn
in
humidity
%
barometer
mb
20260510213107 67 216 0.0 0.0 0.03 0.31 0.31 91 1015.6
20260510210107 67 113 0.0 0.0 0.06 0.30 0.30 92 1015.1
20260510205106 67 113 0.0 2.0 0.06 0.30 0.30 91 1015.3
20260510204106 67 113 2.0 6.0 0.06 0.30 0.30 90 1014.4
20260510202107 67 26 0.0 5.0 0.04 0.27 0.27 90 1015.9
20260510201106 67 79 2.0 9.0 0.06 0.25 0.25 90 1015.0
20260510200107 67 39 3.0 6.0 0.08 0.24 0.24 90 1015.2
20260510193107 67 290 0.0 7.0 0.11 0.24 0.24 90 1016.0
20260510192107 68 42 1.0 5.0 0.10 0.23 0.23 90 1015.1
20260510190107 68 102 3.0 4.0 0.03 0.16 0.16 89 1014.9
20260510185107 69 186 1.0 4.0 0.01 0.14 0.14 88 1015.8
20260510184107 69 62 0.0 12.0 0.01 0.14 0.14 87 1015.1
20260510183106 70 260 2.0 4.0 0.00 0.13 0.13 87 1015.9
20260510182107 71 300 0.0 11.0 0.00 0.13 0.13 86 1015.9
20260510181107 71 283 1.0 7.0 0.00 0.13 0.13 86 1015.9
20260510180107 71 291 1.0 6.0 0.00 0.13 0.13 86 1016.0
20260510174106 72 271 0.0 4.0 0.00 0.13 0.13 86 1015.3
20260510173107 73 284 1.0 4.0 0.00 0.13 0.13 85 1015.4
20260510172107 73 320 0.0 5.0 0.00 0.13 0.13 85 1015.4
20260510171107 74 283 1.0 6.0 0.00 0.13 0.13 84 1015.5
20260510170107 75 259 1.0 9.0 0.00 0.13 0.13 82 1015.1
20260510165107 76 283 3.0 7.0 0.00 0.13 0.13 80 1015.1
20260510164107 76 292 2.0 6.0 0.00 0.13 0.13 78 1014.8
20260510163107 77 286 0.0 3.0 0.00 0.13 0.13 82 1014.1
20260510162107 76 285 1.0 4.0 0.00 0.13 0.13 80 1013.9
20260510161107 76 272 1.0 3.0 0.00 0.13 0.13 82 1013.5
20260510160106 75 120 2.0 6.0 0.00 0.13 0.13 81 1012.7
20260510155107 75 105 2.0 7.0 0.00 0.13 0.13 81 1012.2
20260510154107 74 95 2.0 6.0 0.00 0.13 0.13 85 1012.0
20260510153107 73 117 3.0 6.0 0.00 0.13 0.13 86 1012.1
20260510152107 72 360 3.0 4.0 0.00 0.13 0.13 89 1012.1
20260510151107 71 69 2.0 7.0 0.00 0.13 0.13 89 1012.0
20260510150107 70 47 4.0 11.0 0.00 0.13 0.13 89 1011.8
20260510145107 70 74 7.0 8.0 0.00 0.13 0.13 89 1011.5
20260510144106 69 13 3.0 5.0 0.00 0.13 0.13 91 1011.3
20260510143107 68 111 3.0 6.0 0.00 0.13 0.13 91 1011.0
20260510142110 68 98 2.0 6.0 0.00 0.13 0.13 91 1011.6
20260510141107 68 42 2.0 5.0 0.00 0.13 0.13 91 1011.9
20260510140106 67 43 0.0 5.0 0.00 0.13 0.13 92 1011.6
20260510135107 67 209 0.0 4.0 0.00 0.13 0.13 92 1011.9
20260510134107 66 209 0.0 0.0 0.00 0.13 0.13 92 1011.9
20260510133107 66 209 0.0 2.0 0.00 0.13 0.13 92 1012.2
20260510132107 66 209 1.0 3.0 0.00 0.14 0.13 92 1012.3
20260510131107 66 209 0.0 0.0 0.00 0.14 0.13 92 1012.6
20260510130107 65 209 0.0 0.0 0.00 0.14 0.13 91 1012.5
20260510125107 65 209 0.0 3.0 0.00 0.14 0.13 91 1012.1
20260510124107 65 209 2.0 4.0 0.00 0.14 0.13 91 1011.6
20260510123107 65 211 1.0 2.0 0.01 0.14 0.13 91 1011.3
20260510122107 65 211 0.0 3.0 0.01 0.14 0.13 90 1011.4
20260510121107 65 211 2.0 5.0 0.01 0.14 0.13 90 1011.0
20260510120107 65 184 1.0 4.0 0.01 0.14 0.13 90 1011.0
20260510115107 65 265 0.0 6.0 0.02 0.14 0.13 90 1011.3
20260510113107 66 250 3.0 6.0 0.02 0.13 0.12 91 1011.1
20260510111107 67 206 0.0 3.0 0.03 0.13 0.12 91 1011.6
20260510110107 67 206 2.0 6.0 0.04 0.13 0.12 91 1011.8
20260510105107 67 192 1.0 6.0 0.04 0.12 0.11 91 1011.9
20260510104107 67 167 6.0 12.0 0.05 0.11 0.10 92 1013.1
20260510103107 67 114 6.0 10.0 0.07 0.11 0.10 92 1012.8
20260510102107 67 299 2.0 9.0 0.09 0.11 0.10 92 1011.4
20260510101107 67 217 2.0 6.0 0.08 0.10 0.09 92 1011.1
20260510100107 67 239 2.0 8.0 0.07 0.09 0.08 92 1011.6
20260510095107 68 235 0.0 4.0 0.07 0.08 0.07 92 1012.9
20260510094107 68 188 1.0 9.0 0.05 0.06 0.05 92 1013.0
20260510093107 69 239 3.0 5.0 0.03 0.04 0.03 92 1013.1
20260510092107 69 302 0.0 1.0 0.01 0.02 0.01 92 1012.8
20260510091107 69 302 0.0 1.0 0.01 0.02 0.01 92 1012.9
20260510090107 69 306 0.0 2.0 0.01 0.03 0.01 92 1012.4
20260510085107 69 306 1.0 3.0 0.00 0.02 0.00 92 1011.8
20260510084107 68 67 0.0 1.0 0.00 0.02 0.00 92 1012.2
20260510083107 69 67 0.0 2.0 0.00 0.02 0.00 92 1012.7
20260510082107 68 67 0.0 1.0 0.00 0.02 0.00 92 1012.3
20260510081107 68 67 0.0 4.0 0.00 0.02 0.00 92 1011.8
20260510080107 68 70 3.0 5.0 0.00 0.02 0.00 92 1011.0
20260510075107 67 118 0.0 0.0 0.00 0.02 0.00 91 1010.8
20260510074107 67 118 0.0 0.0 0.00 0.02 0.00 91 1010.9
20260510073107 67 118 0.0 0.0 0.00 0.02 0.00 91 1010.8
20260510072107 67 118 0.0 0.0 0.00 0.02 0.00 91 1010.3
20260510071107 68 118 0.0 0.0 0.00 0.02 0.00 91 1010.8
20260510070107 68 118 0.0 1.0 0.00 0.02 0.00 90 1010.5
20260510065107 68 118 0.0 1.0 0.00 0.02 0.00 90 1010.8
20260510064107 69 118 0.0 0.0 0.00 0.02 0.00 90 1010.7
20260510062107 70 118 0.0 0.0 0.00 0.02 0.00 89 1011.1
20260510061107 70 118 0.0 1.0 0.00 0.02 0.00 89 1011.0
20260510060107 71 118 0.0 2.0 0.00 0.02 0.00 89 1010.6
20260510055107 71 118 0.0 3.0 0.00 0.02 0.00 89 1010.5
20260510054107 71 110 0.0 7.0 0.00 0.02 0.00 89 1010.6
20260510053107 72 84 0.0 3.0 0.00 0.02 0.00 89 1010.5
20260510051107 72 87 2.0 4.0 0.00 0.02 0.00 89 1009.5
20260510050107 72 91 1.0 4.0 0.00 0.02 0.00 89 1009.8
20260510045107 72 93 2.0 6.0 0.00 0.02 0.02 90 1009.7
20260510044107 72 104 3.0 4.0 0.00 0.02 0.02 90 1009.3
20260510043107 72 88 2.0 6.0 0.00 0.02 0.02 91 1009.2
20260510042107 71 132 0.0 0.0 0.00 0.02 0.02 91 1009.0
20260510041107 71 132 0.0 2.0 0.00 0.02 0.02 90 1008.9
20260510040107 71 132 0.0 1.0 0.00 0.02 0.02 89 1008.7
20260510035107 71 132 0.0 2.0 0.00 0.02 0.02 90 1008.7
20260510034107 71 132 0.0 2.0 0.00 0.02 0.02 90 1008.5
20260510033107 71 132 1.0 2.0 0.00 0.02 0.02 90 1008.4
20260510032107 71 132 0.0 0.0 0.00 0.02 0.02 91 1008.5
20260510030109 70 132 0.0 0.0 0.00 0.02 0.02 90 1008.3
20260510024107 71 132 0.0 0.0 0.00 0.02 0.02 89 1007.9
20260510023107 71 132 0.0 0.0 0.00 0.02 0.02 89 1007.9
20260510021107 72 132 0.0 0.0 0.00 0.02 0.02 88 1007.8
20260510020107 73 132 0.0 0.0 0.00 0.02 0.02 88 1007.6
20260510015107 73 132 0.0 0.0 0.00 0.02 0.02 87 1007.5
20260510013107 74 132 0.0 0.0 0.00 0.02 0.02 86 1007.4
20260510012107 75 132 0.0 0.0 0.00 0.02 0.02 85 1007.3
20260510011107 76 132 0.0 0.0 0.00 0.02 0.02 85 1007.2
20260510010107 77 132 0.0 0.0 0.00 0.02 0.02 84 1007.0
20260510005107 77 132 0.0 0.0 0.00 0.02 0.02 83 1006.9
20260510004107 78 132 0.0 0.0 0.00 0.02 0.02 82 1006.9
20260510002107 80 132 0.0 0.0 0.00 0.02 0.02 80 1006.6
20260510001107 80 132 0.0 0.0 0.00 0.02 0.02 79 1006.5
20260510000107 81 132 0.0 0.0 0.00 0.02 0.02 78 1006.6
20260509235107 81 132 0.0 0.0 0.00 0.02 0.02 76 1006.5
20260509234107 82 132 0.0 1.0 0.00 0.02 0.02 75 1006.6
20260509233107 82 132 0.0 2.0 0.00 0.02 0.02 73 1006.6
20260509232107 83 132 0.0 3.0 0.00 0.02 0.02 70 1006.6
20260509231107 83 132 1.0 3.0 0.00 0.02 0.02 69 1006.6
20260509230107 83 134 2.0 5.0 0.00 0.02 0.02 69 1006.5
20260509224107 82 84 1.0 2.0 0.00 0.02 0.02 71 1006.4
20260509221107 83 94 6.0 8.0 0.00 0.02 0.02 68 1006.4
20260509220107 84 87 1.0 3.0 0.00 0.02 0.02 68 1006.5
20260509215107 85 90 1.0 3.0 0.00 0.02 0.02 67 1006.6
20260509214107 85 89 1.0 4.0 0.00 0.02 0.02 66 1006.6